{"data":{"norad_id":39222,"epoch":"2026-09-20T04:32:35.232288Z","epoch_age_seconds":48727,"freshness":"FRESH","line1":"1 39222U 13041A   26263.18929667  .00000000  00000+0  00000+0 0  9992","line2":"2 39222   0.0226 165.2119 0000102 277.4990 209.3188  1.00271513 47019","mean_motion":1.00271513,"eccentricity":1.02e-5,"inclination_deg":0.0226,"raan_deg":165.2119,"arg_perigee_deg":277.499,"mean_anomaly_deg":209.3188,"bstar":0,"rev_number":4701,"period_min":1436.1007996359,"perigee_km":35786.241131793,"apogee_km":35787.101293881,"semimajor_km":42164.808212837,"source":"CELESTRAK","updated_at":"2026-09-20T09:00:35.205604Z"}}